Home   Weather   Portsmouth   Past weeks

Flag for USA Past Weather in Portsmouth, Virginia, USA — Yesterday and Last 2 Weeks

Now
80 °F

Clear.


Feels Like: 83 °F
Forecast: 72 / 89 °F
Wind: 10 mph from Southwest

Location: Norfolk Naval Air Station

Current Time: Apr 29, 2017 at 11:27:13 pm

Latest Report: Apr 29, 2017 at 10:59 pm


Visibility: 9 mi

Pressure: 30.13 "Hg

Humidity: 71%

Dew Point: 70 °F

Location of PortsmouthLocation

Past Weather in Portsmouth — Graph

°F

Portsmouth Temperature Yesterday

Maximum temperature yesterday: 85 °F (at 2:59 pm)
Minimum temperature yesterday: 70 °F (at 5:59 am)
Average temperature yesterday: 77 °F

High & Low Weather Summary for the Past Weeks

 TemperatureHumidityPressure
High88 °F (Apr 21, 1:59 pm)97% (Apr 25, 7:41 am)30.43 "Hg (Apr 25, 7:41 am)
Low54 °F (Apr 18, 9:59 pm)27% (Apr 16, 5:59 pm)29.61 "Hg (Apr 25, 3:59 pm)
Average68 °F74%30.02 "Hg
* Reported Apr 14 9:59 pm — Apr 29 9:59 pm, Portsmouth, Weather by CustomWeather, © 2017

Note: Actual official high and low records may vary slightly from our data, if they occured in-between our weather recording intervals... More about our weather records

Advertising

Portsmouth Weather History for the Previous 24 Hours

Scroll right to see more
 ConditionsComfort  
Time TempWeatherWind HumidityBarometerVisibility
9:59 pm
Sat, Apr 29
82 °FClear.10 mph65%30.13 "Hg9 mi
8:59 pm82 °FPassing clouds.10 mph67%30.11 "Hg9 mi
7:59 pm84 °FPassing clouds.12 mph63%30.10 "Hg8 mi
6:59 pm85 °FPartly sunny.10 mph61%30.09 "Hg7 mi
5:59 pm87 °FScattered clouds.10 mph57%30.09 "Hg8 mi
4:59 pm88 °FOvercast.12 mph55%30.09 "Hg8 mi
3:59 pm88 °FOvercast.14 mph55%30.10 "Hg8 mi
2:59 pm88 °FPartly sunny.12 mph57%30.11 "Hg7 mi
1:59 pm87 °FOvercast.15 mph61%30.12 "Hg7 mi
12:59 pm84 °FPartly sunny.15 mph65%30.14 "Hg7 mi
11:59 am83 °FPartly sunny.12 mph70%30.16 "Hg7 mi
10:59 am81 °FBroken clouds.14 mph72%30.18 "Hg7 mi
9:59 am80 °FBroken clouds.16 mph74%30.17 "Hg7 mi
8:59 am78 °FBroken clouds.12 mph79%30.17 "Hg6 mi
7:59 am76 °FBroken clouds.14 mph85%30.17 "Hg6 mi
7:35 am75 °FFog.12 mph88%30.17 "Hg5 mi
6:59 am75 °FFog.9 mph88%30.16 "Hg6 mi
5:59 am76 °FOvercast.12 mph82%30.14 "Hg7 mi
4:59 am76 °FOvercast.10 mph85%30.12 "Hg7 mi
3:59 am76 °FOvercast.10 mph85%30.11 "Hg7 mi
2:59 am76 °FOvercast.12 mph88%30.09 "Hg7 mi
2:24 am76 °FFog.13 mph88%30.08 "Hg6 mi
1:59 am76 °FFog.12 mph88%30.08 "Hg6 mi
12:59 am77 °FClear.7 mph88%30.10 "Hg7 mi
11:59 pm
Fri, Apr 28
78 °FPassing clouds.8 mph84%30.09 "Hg7 mi
Weather by CustomWeather, © 2017

See weather overviewHow to use our weather pages